Powrót do katalogu

ONEWEB-0548

AktywnyŁącznośćPO
NORAD 56050·PAYLOAD·🇬🇧 United Kingdom

Wystrzelony Mar 26, 2023 z Satish Dhawan Space Centre

Loading…

Następne Przeloty (najbliższe 24 godziny)

TLE

ŚwieżeSource: CelesTrak SupGP

Epoka: Sep 14, 2026, 23:16 UTC

1 56050C 23043E   26257.96963377 -.00002752  00000+0 -72069-2 0  2570
2 56050  87.9146 210.9417 0002470  85.3347 355.7960 13.16594523    15

Śledź ONEWEB-0548 w czasie rzeczywistym z AllMySat

Download on the App Store